Asiasat 7

operational
NORAD ID: 37933 Int'l Des: 2011-069 Owner: ASIA Country: HK
HEOCIRCULARGSOGEO

About Asiasat 7

Description loading...

Live Position

Loading 3D Globe...

Upcoming Passes

Altitude History

Altitude vs Time

uPlot chart will show altitude changes over time

Two-Line Element Set

1 37933U 11069A 26048.65031671 -.00000328 00000-0 00000-0 0 9995
2 37933 0.0522 268.9278 0000550 53.0372 165.2340 1.00265287 43669
Epoch: Feb 17, 2026 • Age: 9 hours

Current Status

Altitude 35786.9 km
Velocity 3.07 km/s
Sub-Earth Point 0.02°N, 105.47°E
Launch Date Nov 25, 2011
Age 14.2 years
Type other

Technical Details

Classification Payload
Mass 3813.00 kg
Dry Mass 2000.00 kg
Total Mass 3813.00 kg
Length 6.50 m
Diameter 2.80 m
Span 24.70 m
Shape Box + 2 Pan
Manufacturer LOR
Bus Type SSL-1300LL
Phase Status In Orbit
Owner/State ASIA/HK

Large Constellations

Loading constellations...